ONEWEB-0553, 56055

Orbit data source: Space-Track

ONEWEB-0553, 56055 is a payload satellite owned by One Web (NAA) (UK) in LEO that was launched on Sun, 26 Mar 2023 UTC via a LVM3 launch vehicle from the Sirharikota (SRI). Payload-class satellites include a variety of spacecraft equipped with specific instruments for various scientific and technological missions. These include communications satellites like Starlink; space stations such as the ISS; scientific satellites like the Hubble; Earth observation satellites from companies like Planet Labs, Umbra, and HawkEye 360; GPS; miniature CubeSats for education and research; and military/defense satellites.

Loading next visibility...
Identifier
56055, 2023-043K
Orbit
LEO
Country
Flag of UKUK
Related business
Manufacturer
One Web
Mission
Operational Commercial Communications
Bus & Motor
ARROW, Unknown motor
Mass
148 kg wet, ~140 kg dry
Launch date (UTC)
2023-03-26 (3 years ago)
Launch vehicle
LVM3
Launch site
Sirharikota (SRI)
Object type
Payload
Rocket body
Debris
Shape & HBR
Trap Box + 2 Pan, 6.7 m
Radar Cross Section
3.464 m², Large (>1 m²)

Expand to show TLE details & history
Last TLE update: 2 days ago

TLE from 2 days ago
0 ONEWEB-0553
1 56055U 23043K   26171.44979994  .00000100  00000-0  22709-3 0  9999
2 56055  87.9094 228.1265 0002391  91.6123 268.5281 13.16594405159402
Epoch: 2026-06-20T10:47Z
TLE epoch observation values (Epoch: 2026-06-20T10:47:42.714Z)
Latitude
-0.00012°
Longitude
157.53426°
Altitude
1,200.7 km
Speed
7.254 km/s
True Right ascension
15h 12m 30s
True Declination
0° 00' 00"
Sunlit
Object was in full shadow at epoch
Visualization orbit readout
Latitude
Unknown
Longitude
Unknown
Altitude
Unknown
Speed
Unknown
Apparent Right ascension
Unknown
Apparent Declination
Unknown
Sunlit
N/A
Visualization observer readout
Local Sidereal Time
21:27:25
Azimuth
Unknown
Elevation
Unknown
Doppler factor
Unknown
Orbital elements
Apogee altitude
1,196.677 km
Perigee altitude
1,193.056 km
Semi-major axis
7,573.003 km
Eccentricity
0.00024
Inclination
87.9094°
RAAN
228.1265°
Arg. of periapsis
91.6123°
True anomaly
268.50071°
Mean anomaly
268.5281°
Eccentric anomaly
268.51441°
Mean motion
3.29337 °/min
Orbital period
109.31 mins
BSTAR
0.00022709
Loading maneuver chart data...
Computing Atmospheric mass density...
Loading historical data...
Loading historical data...
Loading historical data...
Loading historical data...
Loading historical data...
Loading historical data...
Loading historical data...

Documentation

Showing up to 5 results
|